This demonstration page uses our WeatherBlox Daily Observations layout. Learn more.

Left ArrowRight Arrow

Hourly Observations for October 11, 2016

Temp ( °F °C ) Dew Point ( °F °C ) Humidity (%) Winds ( mph kmh ) Pressure ( in mb ) Visibility ( mi km ) Precip ( " mm )
12:17 am 00:17 Clear 57 14 48 9 72 72 SE 6 9 30.30 1026 10 16 N/A
12:37 am 00:37 Clear 57 14 48 9 72 72 SE 6 9 30.30 1026 10 16 N/A
12:56 am 00:56 Clear 57 14 48 9 72 72 SE 6 9 30.30 1026 10 16 N/A
1:17 am 01:17 Clear 57 14 48 9 72 72 SE 5 7 30.30 1026 10 16 N/A
1:37 am 01:37 Clear 57 14 48 9 72 72 SE 3 6 30.30 1026 10 16 N/A
1:56 am 01:56 Clear 55 13 48 9 77 77 SSE 3 6 30.30 1026 10 16 N/A
2:17 am 02:17 Clear 55 13 48 9 77 77 S 5 7 30.30 1026 10 16 N/A
2:37 am 02:37 Clear 55 13 48 9 77 77 SSE 3 6 30.30 1026 10 16 N/A
2:56 am 02:56 Clear 55 13 48 9 77 77 S 5 7 30.30 1026 10 16 N/A
3:17 am 03:17 Clear 54 12 48 9 82 82 SSE 3 6 30.30 1026 10 16 N/A
3:37 am 03:37 Clear 55 13 48 9 77 77 N N/A 30.30 1026 10 16 N/A
3:56 am 03:56 Clear 55 13 48 9 77 77 SSE 3 6 30.30 1026 10 16 N/A
4:17 am 04:17 Clear 55 13 48 9 77 77 SE 6 9 30.27 1025 10 16 N/A
4:37 am 04:37 Clear 55 13 48 9 77 77 SE 5 7 30.27 1025 10 16 N/A
4:56 am 04:56 Partly Cloudy 55 13 48 9 77 77 SSE 6 9 30.30 1026 10 16 N/A
5:17 am 05:17 Mostly Cloudy 55 13 46 8 72 72 N N/A 30.30 1026 10 16 N/A
5:36 am 05:36 Partly Cloudy 55 13 46 8 72 72 N N/A 30.30 1026 10 16 N/A
5:56 am 05:56 Clear 54 12 46 8 77 77 N N/A 30.30 1026 10 16 N/A
6:17 am 06:17 Clear 52 11 46 8 82 82 SE 3 6 30.30 1026 10 16 N/A
6:36 am 06:36 Clear 52 11 46 8 82 82 SE 5 7 30.30 1026 10 16 N/A
6:56 am 06:56 Clear 52 11 46 8 82 82 N N/A 30.30 1026 10 16 N/A
7:17 am 07:17 Clear 52 11 46 8 82 82 N N/A 30.30 1026 10 16 N/A
7:36 am 07:36 Clear 52 11 46 8 82 82 N N/A 30.30 1026 10 16 N/A
7:56 am 07:56 Sunny 50 10 46 8 88 88 N N/A 30.30 1026 10 16 N/A
8:17 am 08:17 Sunny 52 11 46 8 82 82 N N/A 30.30 1026 10 16 N/A
8:36 am 08:36 Sunny 52 11 46 8 82 82 N N/A 30.30 1026 10 16 N/A
8:56 am 08:56 Sunny 54 12 46 8 77 77 N N/A 30.30 1026 10 16 N/A
9:17 am 09:17 Sunny 54 12 46 8 77 77 SE 5 7 30.30 1026 10 16 N/A
9:36 am 09:36 Sunny 55 13 46 8 72 72 SE 6 9 30.30 1026 10 16 N/A
11:17 am 11:17 Sunny 63 17 45 7 52 52 S 7 11 30.27 1025 10 16 N/A
11:37 am 11:37 Sunny 64 18 45 7 49 49 S 7 11 30.27 1025 10 16 N/A
11:56 am 11:56 Sunny 64 18 45 7 49 49 SSE 6 9 30.27 1025 10 16 N/A
12:17 pm 12:17 Sunny 66 19 45 7 46 46 S 3 6 30.24 1024 10 16 N/A
12:37 pm 12:37 Sunny 68 20 45 7 43 43 SSW 6 9 30.24 1024 10 16 N/A
12:56 pm 12:56 Sunny 70 21 46 8 43 43 SSE 7 11 30.24 1024 10 16 N/A
1:37 pm 13:37 Sunny 70 21 45 7 40 40 SW 7 11 30.21 1023 10 16 N/A
1:56 pm 13:56 Sunny 70 21 45 7 40 40 SSW 9 15 30.21 1023 10 16 N/A
2:17 pm 14:17 Sunny 72 22 46 8 41 41 SW 5 7 30.18 1022 10 16 N/A
2:37 pm 14:37 Sunny 72 22 46 8 41 41 S 7 11 30.18 1022 10 16 N/A
2:56 pm 14:56 Sunny 72 22 46 8 41 41 S 9 15 30.18 1022 10 16 N/A
3:17 pm 15:17 Sunny 72 22 45 7 38 38 WSW 8 13 30.18 1022 10 16 N/A
3:36 pm 15:36 Sunny 73 23 45 7 36 36 SW 7 11 30.15 1021 10 16 N/A
3:56 pm 15:56 Sunny 73 23 46 8 38 38 SW 9 15 30.15 1021 10 16 N/A
4:17 pm 16:17 Sunny 73 23 46 8 38 38 S 7 11 30.15 1021 10 16 N/A
4:36 pm 16:36 Sunny 73 23 46 8 38 38 SSW 8 13 30.15 1021 10 16 N/A
4:56 pm 16:56 Sunny 73 23 48 9 41 41 S 9 15 30.15 1021 10 16 N/A
5:17 pm 17:17 Sunny 73 23 48 9 41 41 S 12 19 30.15 1021 10 16 N/A
5:36 pm 17:36 Sunny 73 23 48 9 41 41 S 9 15 30.12 1020 10 16 N/A
5:56 pm 17:56 Sunny 72 22 48 9 44 44 SSW 8 13 30.18 1022 10 16 N/A
6:17 pm 18:17 Sunny 72 22 48 9 44 44 SW 10 17 30.15 1021 10 16 N/A
6:36 pm 18:36 Sunny 70 21 50 10 50 50 S 6 9 30.15 1021 10 16 N/A
6:56 pm 18:56 Sunny 68 20 50 10 53 53 S 3 6 30.15 1021 10 16 N/A
7:17 pm 19:17 Clear 66 19 50 10 56 56 S 3 6 30.15 1021 10 16 N/A
7:36 pm 19:36 Clear 64 18 50 10 60 60 S 3 6 30.15 1021 10 16 N/A
7:56 pm 19:56 Clear 63 17 50 10 64 64 S 3 6 30.15 1021 10 16 N/A
8:16 pm 20:16 Clear 63 17 50 10 64 64 S 3 6 30.18 1022 10 16 N/A
8:36 pm 20:36 Clear 63 17 50 10 64 64 S 3 6 30.15 1021 10 16 N/A
8:57 pm 20:57 Clear 59 15 50 10 72 72 SSE 5 7 30.15 1021 10 16 N/A
9:16 pm 21:16 Clear 59 15 50 10 72 72 SSE 5 7 30.15 1021 10 16 N/A
9:36 pm 21:36 Clear 61 16 50 10 68 68 SSE 3 6 30.15 1021 10 16 N/A
9:57 pm 21:57 Clear 59 15 50 10 72 72 SSE 6 9 30.15 1021 10 16 N/A
10:16 pm 22:16 Clear 59 15 50 10 72 72 SSE 6 9 30.15 1021 10 16 N/A
10:36 pm 22:36 Clear 59 15 50 10 72 72 SSE 3 6 30.15 1021 10 16 N/A
10:57 pm 22:57 Clear 57 14 50 10 77 77 SSE 3 6 30.15 1021 10 16 N/A
11:16 pm 23:16 Clear 57 14 50 10 77 77 SSE 5 7 30.18 1022 10 16 N/A
11:36 pm 23:36 Clear 57 14 50 10 77 77 SSE 6 9 30.18 1022 10 16 N/A
11:57 pm 23:57 Clear 59 15 50 10 72 72 S 5 7 30.18 1022 10 16 N/A

Powered by AerisWeather